Weather History for Fort Polk, LA

Change the Weather History Date:

Friday, July 5, 2013

  Actual Average Record
Temperature  
Mean Temperature 81 °F -  
Max Temperature 93 °F 89 °F 96 °F (1998)
Min Temperature 69 °F 71 °F 68 °F (2014)
Cooling Degree Days 16    
Growing Degree Days 31 (Base 50)    
Moisture  
Dew Point 63 °F    
Average Humidity 59    
Maximum Humidity 87    
Minimum Humidity 27    
Precipitation  
Precipitation 0.00 in - - ()
Sea Level Pressure  
Sea Level Pressure 29.97 in    
Wind  
Wind Speed 3 mph (East)    
Max Wind Speed 10 mph    
Max Gust Speed -    
Visibility 10 miles    
Events      
Averages and records for this station are not official NWS values.
T = Trace of Precipitation, MM = Missing Value Source: NWS Daily Summary

Daily Weather History Graph

Daily Weather History Graph

Search for Another Location

Airport:

Trip Planner

Search our weather history database for the weather conditions in past years. The results will help you decide how hot, cold, wet, or windy it might be!

Date:

Astronomy

Jul. 05, 2013 Rise Set
Actual Time 6:14 AM CDT 8:20 PM CDT
Civil Twilight 5:46 AM CDT 8:47 PM CDT
Nautical Twilight 5:13 AM CDT 9:21 PM CDT
Astronomical Twilight 4:37 AM CDT 9:57 PM CDT
Moon 4:10 AM CDT (7/5) 6:18 PM CDT (7/5)
Length of Visible Light 15h 00m
Length of Day
14h 05m
Waning Crescent, 6% of the Moon is Illuminated
Jul 5
Waning Crescent
Jul 8
New
Jul 15
First Quarter
Jul 22
Full
Jul 29
Last Quarter

Hourly Weather History & Observations

Time (CDT) Temp. Heat Index Dew Point Humidity Pressure Visibility Wind Dir Wind Speed Gust Speed Precip Events Conditions
12:55 AM 72.0 °F - 63.0 °F 73% 29.99 in 10.0 mi Calm Calm - N/A   Clear
1:55 AM 70.0 °F - 63.0 °F 78% 29.98 in 10.0 mi Calm Calm - N/A   Clear
2:55 AM 70.0 °F - 63.0 °F 78% 29.97 in 10.0 mi Calm Calm - N/A   Clear
3:55 AM 69.1 °F - 63.0 °F 81% 29.97 in 10.0 mi Calm Calm - N/A   Clear
4:55 AM 70.0 °F - 62.1 °F 76% 29.97 in 10.0 mi Calm Calm - N/A   Clear
5:55 AM 71.1 °F - 63.0 °F 75% 29.98 in 10.0 mi East 3.5 mph - N/A   Clear
6:55 AM 71.1 °F - 64.0 °F 78% 29.99 in 10.0 mi Calm Calm - N/A   Clear
7:30 AM 73.4 °F - 64.4 °F 73% 29.99 in 10.0 mi Calm Calm - N/A   Partly Cloudy
7:55 AM 77.0 °F - 64.9 °F 66% 29.99 in 10.0 mi ENE 3.5 mph - N/A   Clear
8:55 AM 81.0 °F 82.7 °F 64.9 °F 58% 29.99 in 10.0 mi ENE 4.6 mph - N/A   Clear
9:55 AM 84.0 °F 86.3 °F 66.0 °F 55% 30.00 in 10.0 mi ENE 8.1 mph - N/A   Clear
10:55 AM 87.1 °F 89.2 °F 66.0 °F 49% 30.01 in 10.0 mi NE 6.9 mph - N/A   Clear
11:55 AM 89.1 °F 89.0 °F 61.0 °F 39% 30.01 in 10.0 mi North 8.1 mph - N/A   Clear
12:55 PM 91.0 °F 90.9 °F 61.0 °F 36% 30.00 in 10.0 mi NE 5.8 mph - N/A   Partly Cloudy
1:55 PM 91.0 °F 90.2 °F 59.0 °F 34% 29.98 in 10.0 mi Variable 6.9 mph - N/A   Clear
2:55 PM 93.0 °F 91.7 °F 57.0 °F 30% 29.96 in 10.0 mi East 9.2 mph - N/A   Clear
3:55 PM 93.0 °F 90.8 °F 54.0 °F 27% 29.93 in 10.0 mi ENE 6.9 mph - N/A   Clear
4:55 PM 93.0 °F 90.8 °F 54.0 °F 27% 29.93 in 10.0 mi East 6.9 mph - N/A   Clear
5:55 PM 91.9 °F 90.6 °F 57.0 °F 31% 29.91 in 10.0 mi ENE 5.8 mph - N/A   Clear
6:55 PM 90.0 °F 88.8 °F 57.9 °F 34% 29.91 in 10.0 mi East 9.2 mph - N/A   Clear
7:55 PM 81.0 °F 84.1 °F 69.1 °F 67% 29.94 in 10.0 mi SE 10.4 mph - N/A   Clear
8:55 PM 79.0 °F - 66.9 °F 66% 29.95 in 10.0 mi SE 6.9 mph - N/A   Clear
9:55 PM 77.0 °F - 68.0 °F 74% 29.97 in 10.0 mi SE 5.8 mph - N/A   Clear
10:55 PM 75.9 °F - 68.0 °F 76% 29.96 in 10.0 mi ESE 3.5 mph - N/A   Clear
11:55 PM 72.0 °F - 68.0 °F 87% 29.98 in 10.0 mi SSE 4.6 mph - N/A   Clear